Location: Hornstaad
(47.6925°N, 8.9967°E)
Time: 15:38:44
(UTC+00:00)

Daily predictions for brighter satellites

Satellite Brightness Start Highest point End
(mag) Time Altitude Azimuth Time Altitude Azimuth Time Altitude Azimuth
Cosmos 2233 Rocket 4.2 17:25:13 10° SSE 17:31:06 50° E 17:37:03 10° NNE
NOSS 2-3 (E) 4.3 17:27:40 10° S 17:31:35 35° ESE 17:36:06 10° NE
STARLINK-1044 4.3 17:27:46 10° SSW 17:31:38 40° SE 17:35:31 10° ENE
Cosmos 44 3.1 17:27:29 10° NNW 17:31:52 66° NE 17:36:22 10° SE
STARLINK-1010 3.1 17:29:01 10° WSW 17:32:17 79° NNW 17:35:34 10° ENE
STARLINK-1031 4.1 17:29:15 10° SW 17:33:07 45° SE 17:37:01 10° ENE
STARLINK 1040 2.9 17:30:36 10° WSW 17:33:22 61° NNW 17:36:10 10° ENE
Lacrosse 4 Rocket 2.9 17:29:58 10° WSW 17:33:54 36° NW 17:37:58 10° NNE
Cosmos 1238 Rocket 4.4 17:28:04 10° SSW 17:34:33 78° W 17:41:13 10° N
Cosmos 1633 3.9 17:33:56 10° SSW 17:37:22 43° WNW 17:40:52 10° N
Sich 1 3.2 17:33:46 10° SSW 17:38:02 77° W 17:42:20 10° N
STARLINK-24 3.8 17:35:35 10° WSW 17:39:34 66° NNW 17:43:36 10° ENE
Cosmos 1939 Rocket 3.1 17:36:08 10° SSE 17:40:09 53° ENE 17:44:12 10° N
STARLINK-1029 2.9 17:37:19 10° WSW 17:40:29 87° NNW 17:43:41 10° ENE
STARLINK-1037 4.1 17:37:31 10° SW 17:41:29 46° SE 17:45:28 10° ENE
USA 234 4.1 17:35:37 10° ENE 17:41:36 40° N 17:47:36 10° WNW
STARLINK-29 3.1 17:41:21 10° WNW 17:44:45 82° SSW 17:48:09 10° ESE
CZ-4 R/B 1.5 17:41:00 10° SSE 17:45:12 90° ESE 17:49:23 10° NNW
Cosmos 1656 Rocket 4.3 17:40:28 10° SSE 17:45:18 32° ESE 17:50:13 10° NE
SL-27 R/B 3.0 17:42:53 10° NNW 17:46:11 57° WSW 17:49:25 10° S
STARLINK-1059 3.9 17:42:30 10° SW 17:46:30 50° SE 17:50:19 11° ENE
NOSS 2-3 (D) 4.1 17:42:27 10° SSW 17:46:32 44° ESE 17:51:16 10° NE
STARLINK-1016 3.3 17:44:24 10° WSW 17:47:40 64° NNW 17:50:49 11° ENE
STARLINK-1008 3.3 17:44:47 10° WSW 17:48:05 64° NNW 17:51:15 11° ENE
USA 229 DEB 3.7 17:41:56 10° SW 17:48:31 85° NW 17:55:28 10° NE
USA 229 3.7 17:42:03 10° SW 17:48:37 85° NW 17:55:34 10° NE
STARLINK-81 3.9 17:45:14 10° WSW 17:49:14 63° NNW 17:53:08 11° ENE
Cosmos 1470 Rocket 3.8 17:45:43 10° SSE 17:49:52 47° E 17:54:06 10° NNE
STARLINK-54 3.9 17:47:08 10° W 17:51:07 59° NNW 17:54:56 11° ENE
STARLINK-1025 3.4 17:48:08 10° WSW 17:51:24 61° NNW 17:54:25 12° ENE
STARLINK-1057 3.9 17:47:27 10° SW 17:51:29 54° SE 17:55:07 13° ENE
STARLINK-75 4.1 17:49:08 10° W 17:52:22 40° NNW 17:55:21 12° ENE
STARLINK-77 3.9 17:48:34 10° WSW 17:52:33 61° NNW 17:56:20 11° ENE
STARLINK-1017 3.4 17:49:48 10° WSW 17:53:04 60° NNW 17:56:01 12° ENE
STARLINK-22 3.9 17:50:05 10° W 17:53:19 43° NNW 17:56:16 12° NE
STARLINK-25 3.9 17:50:15 10° WSW 17:54:14 60° NNW 17:57:55 12° ENE
STARLINK-41 4.0 17:51:34 10° W 17:54:47 41° NNW 17:57:41 12° NE
Cosmos 1862 Rocket 3.5 17:51:13 10° N 17:55:34 78° ENE 17:59:55 10° SSE
NOSS 3-1 (A) 3.3 17:50:10 10° SSW 17:55:40 74° SE 18:02:07 10° NE
Cosmos 2242 Rocket 3.9 17:51:30 10° N 17:55:54 47° ENE 18:00:18 10° SSE
COSMO-SKYMED 1 2.9 17:51:36 10° N 17:55:56 70° WNW 18:00:15 10° SSW
STARLINK-71 4.0 17:52:09 10° W 17:56:07 56° NNW 17:59:44 12° ENE
STARLINK-1034 3.8 17:52:22 10° SW 17:56:26 58° SE 17:59:53 14° ENE
STARLINK-79 4.0 17:53:33 10° W 17:57:32 58° NNW 18:01:05 13° ENE
STARLINK-52 3.2 17:54:14 10° WNW 17:57:37 73° SSW 18:00:48 11° SE
Okean-O 4.2 17:53:51 10° SSW 17:58:00 40° W 18:02:13 10° NNW
STARLINK-1048 3.5 17:54:53 10° WSW 17:58:09 56° NNW 18:00:54 14° ENE
STARLINK-78 4.0 17:55:15 10° W 17:59:13 57° NNW 18:02:42 13° ENE
STARLINK-1049 3.5 17:56:35 10° W 17:59:51 55° NNW 18:02:33 14° NE
STARLINK-57 4.0 17:57:02 10° W 18:00:59 55° NNW 18:04:24 14° ENE
STARLINK-1068 3.7 17:57:18 10° SW 18:01:24 63° SSE 18:04:39 16° ENE
CENTAUR R/B 4.2 17:55:23 10° NW 18:01:24 26° NNE 18:07:34 11° ENE
STARLINK-1051 3.6 17:58:21 10° W 18:01:36 54° NNW 18:04:14 15° NE
FALCON 9 DEB 3.8 17:58:25 10° WNW 18:01:48 53° SSW 18:05:09 10° SE
STARLINK-1028 3.6 17:58:44 10° W 18:02:00 54° NNW 18:04:37 15° NE
STARLINK-64 4.1 17:58:38 10° W 18:02:04 42° NNW 18:04:55 14° NE
STARLINK-49 4.0 17:58:33 10° W 18:02:31 55° NNW 18:05:52 14° ENE
Cosmos 1812 3.5 17:59:10 10° NNW 18:02:59 55° W 18:06:45 10° S
STARLINK-1021 3.6 18:00:30 10° W 18:03:47 52° NNW 18:06:19 15° NE
Cosmos 2369 Rocket 2.2 17:58:10 10° SSW 18:03:50 89° SE 18:09:35 10° NNE
STARLINK-27 4.1 18:00:13 10° W 18:04:10 54° NNW 18:07:27 14° ENE
STARLINK-26 4.4 18:01:03 10° WNW 18:04:13 32° N 18:06:33 16° ENE
Ariane Rocket 3.3 18:00:06 10° SE 18:04:56 45° ENE 18:09:48 10° N
Cosmos 921 Rocket 3.6 18:00:48 10° SSW 18:05:16 63° WNW 18:09:47 10° NNE
STARLINK-1019 3.6 18:02:18 10° W 18:05:33 51° NNW 18:08:02 16° NE
STARLINK-74 4.1 18:01:53 10° W 18:05:50 54° NNW 18:09:03 15° ENE
STARLINK-1012 3.7 18:04:06 10° W 18:07:22 50° NNW 18:09:46 17° NE
STARLINK-39 4.1 18:03:33 10° W 18:07:30 53° NNW 18:10:38 15° ENE
Lacrosse 5 3.5 18:04:55 10° SSE 18:07:44 15° ESE 18:08:21 15° ESE
Okean 1-7 3.6 18:05:01 10° N 18:08:58 34° ENE 18:12:55 10° SE
STARLINK-31 4.1 18:05:14 10° W 18:09:10 52° NNW 18:12:14 16° ENE
IRS-1A Rocket 4.4 18:03:55 10° SE 18:09:11 48° ENE 18:14:28 10° N
STARLINK-1026 3.7 18:07:42 10° W 18:10:57 49° NNW 18:13:12 18° NE
STARLINK-69 4.2 18:07:06 10° W 18:11:01 49° NNW 18:14:00 16° NE
STARLINK-1014 3.6 18:07:53 10° WSW 18:11:19 57° NNW 18:13:43 18° NE
STARLINK-1060 3.6 18:07:12 10° SW 18:11:20 73° SSE 18:14:12 19° ENE
SJ-6B 3.9 18:11:06 20° E 18:11:54 22° ENE 18:14:52 10° NNE
STARLINK-21 4.2 18:08:35 10° W 18:12:31 50° NNW 18:15:26 17° NE
Cosmos 1703 Rocket 3.9 18:08:17 10° N 18:12:34 44° ENE 18:16:51 10° SSE
STARLINK-1013 3.8 18:09:32 10° W 18:12:46 48° NNW 18:14:58 18° NE
ATLAS 3B R/B 4.3 18:08:15 10° NW 18:13:03 20° N 18:17:53 10° NE
CZ-2D R/B 3.6 18:10:10 10° S 18:14:02 68° W 18:17:55 10° NNW
STARLINK-45 4.2 18:10:29 10° W 18:14:23 48° NNW 18:17:13 17° NE
STARLINK-1009 3.8 18:11:20 10° W 18:14:35 47° NNW 18:16:42 19° NE
STARLINK-70 4.2 18:12:04 10° W 18:15:59 48° NNW 18:18:45 18° NE
Cosmos 990 Rocket 4.3 18:11:07 10° NNW 18:16:01 42° ENE 18:20:03 15° SE
Cosmos 1833 4.2 18:10:22 10° NNW 18:16:11 87° ENE 18:21:55 10° SSE
STARLINK-1030 3.5 18:12:12 10° SW 18:16:20 78° SSE 18:19:01 21° ENE
STARLINK-1015 3.8 18:13:10 10° W 18:16:26 46° NNW 18:18:28 20° NE
NOSS 7 (D) 4.5 18:14:12 10° NNW 18:17:00 43° NE 18:18:06 29° E
STARLINK-76 4.2 18:13:35 10° W 18:17:30 48° NNW 18:20:13 18° NE
STARLINK-23 4.2 18:15:15 10° W 18:19:09 48° NNW 18:21:47 19° NE
NOSS 2-3 (C) 3.7 18:16:13 10° SW 18:20:35 86° SE 18:25:48 10° NE
STARLINK-32 4.2 18:16:55 10° W 18:20:50 47° NNW 18:23:24 20° NE
STARLINK-1020 3.5 18:17:09 10° WSW 18:21:17 82° SSE 18:23:47 23° ENE
SJ 16-02 1.8 18:17:20 10° N 18:21:30 39° ENE 18:23:52 22° ESE
Cosmos 1869 Rocket 4.3 18:18:35 10° SSE 18:22:22 29° E 18:26:09 10° NNE
STARLINK-40 4.3 18:18:35 10° W 18:22:29 47° NNW 18:24:58 20° NE
FREGAT/IRIS 3.7 18:23:34 25° NE 18:23:34 25° NE 18:25:14 10° N
STARLINK-1047 3.6 18:19:33 10° WSW 18:23:43 86° SSE 18:26:11 24° ENE
DMSP B5D1-3 4.5 18:18:39 10° NNE 18:23:50 86° ESE 18:29:00 10° SSW
H-2A R/B 2.4 18:19:00 10° SE 18:24:08 47° ENE 18:29:21 10° N
STARLINK-44 4.3 18:20:16 10° W 18:24:10 46° NNW 18:26:35 21° NE
ARGOS 3.5 18:20:26 10° SE 18:25:30 42° ENE 18:30:37 10° N
Cosmos 1937 Rocket 4.0 18:20:44 10° N 18:25:40 39° ENE 18:28:21 23° ESE
STARLINK-37 4.3 18:22:03 10° W 18:25:56 45° NNW 18:28:16 21° NE
STARLINK-48 4.4 18:22:35 10° WNW 18:26:15 37° N 18:28:00 24° NE
STARLINK-1052 3.5 18:22:08 10° WSW 18:26:17 87° SSE 18:28:35 26° ENE
STARLINK-61 4.5 18:23:05 10° WNW 18:26:47 38° N 18:28:49 22° NE
STARLINK-36 4.3 18:23:35 10° W 18:27:28 45° NNW 18:29:45 22° NE
CSL-04 Rocket 4.4 18:23:21 10° S 18:28:47 57° WSW 18:34:11 10° NNW
STARLINK-68 4.4 18:25:29 10° W 18:29:21 44° NNW 18:31:32 22° NE
STARLINK-63 4.4 18:27:02 10° W 18:30:54 44° NNW 18:33:01 23° NE
Cosmos 2263 4.4 18:25:36 10° SSW 18:31:23 79° WNW 18:37:12 10° NNE
Cosmos 1346 Rocket 2.9 18:27:59 10° SSW 18:31:58 78° WNW 18:35:56 10° N
STARLINK-35 4.3 18:28:35 10° W 18:32:28 44° NNW 18:34:31 24° NE
BREEZE-M DEB (TANK) 3.7 18:29:48 10° WNW 18:32:36 58° SSW 18:37:09 18° SE
STARLINK-1064 4.5 18:29:26 10° SSW 18:33:04 30° SE 18:33:36 29° ESE
STARLINK-51 4.4 18:30:16 10° W 18:34:08 43° NNW 18:36:06 24° NE
YAOGAN 1 4.3 18:31:24 10° SSW 18:35:23 35° W 18:39:23 10° NNW
STARLINK-1023 4.0 18:32:33 10° W 18:35:34 37° NNW 18:36:38 28° NNE
STARLINK-43 3.6 18:31:58 10° WNW 18:35:38 55° NNE 18:36:38 39° ENE
STARLINK-30 4.4 18:31:56 10° W 18:35:48 43° NNW 18:37:42 25° NE
USA 186 3.8 18:38:07 13° N 18:38:07 13° N 18:38:29 10° N
STARLINK-1033 3.6 18:32:04 10° WSW 18:36:12 83° NNW 18:38:08 31° ENE
STARLINK-72 4.4 18:33:36 10° W 18:37:27 43° N 18:39:17 26° NE
STARLINK-1041 4.4 18:34:21 10° SSW 18:38:03 33° SE 18:38:25 32° SE
Nadezhda 4 Rocket 4.2 18:32:11 10° N 18:38:18 50° ENE 18:44:26 10° SSE
STARLINK-50 4.4 18:35:15 10° W 18:39:06 42° N 18:40:51 26° NE
Cosmos 1464 Rocket 4.0 18:33:46 10° S 18:40:03 66° E 18:46:23 10° NNE
STARLINK-59 4.4 18:37:03 10° W 18:40:54 42° N 18:42:34 27° NE
Cosmos 44 Rocket 3.3 18:36:32 10° NNW 18:41:12 56° NE 18:42:58 35° ESE
STARLINK-56 4.4 18:38:34 10° W 18:42:25 42° N 18:44:02 28° NE
STARLINK-1038 4.2 18:39:13 10° SSW 18:43:00 35° SE 18:43:12 35° SE
STARLINK-1035 3.8 18:39:11 10° WSW 18:43:25 73° NNW 18:45:13 33° NE
STARLINK-73 4.4 18:40:16 10° W 18:44:07 41° N 18:45:39 28° NE
STARLINK-38 4.4 18:41:57 10° W 18:45:48 41° N 18:47:15 29° NE
STARLINK-1024 3.7 18:42:05 10° WSW 18:46:13 74° NNW 18:47:44 38° NE
Cosmos 2297 Rocket 3.3 18:42:33 10° N 18:47:11 25° NE 18:47:51 24° ENE
STARLINK-65 4.5 18:43:36 10° W 18:47:25 41° N 18:48:49 30° NE
Cosmos 1933 Rocket 4.1 18:43:28 10° SSW 18:47:49 61° W 18:52:12 10° N
STARLINK-1046 4.2 18:44:05 10° SSW 18:47:55 38° SE 18:47:57 38° SE
NOSS 3-1 (C) 4.5 18:43:06 10° WSW 18:48:31 42° NW 18:54:51 10° NE
STARLINK-53 4.5 18:45:21 10° W 18:49:10 40° N 18:50:29 30° NE
Meteor 1-20 Rocket 4.2 18:46:57 10° SSW 18:52:26 85° WNW 18:58:02 10° N
STARLINK-1039 4.1 18:48:59 10° SSW 18:52:44 41° SSE 18:52:44 41° SSE
STARLINK-33 4.3 18:49:55 10° WNW 18:52:53 30° N 18:53:06 30° N
STARLINK-1027 4.0 18:49:52 10° WSW 18:54:06 63° NNW 18:55:28 39° NE
STARLINK-1007 4.1 18:51:08 10° WNW 18:54:09 34° N 18:54:28 33° N
Meteor 1-18 Rocket 4.3 18:48:44 10° NNW 18:54:41 90° SSE 19:00:31 10° S
STARLINK-55 4.3 18:51:57 10° WNW 18:54:55 30° N 18:55:01 30° N
STARLINK-66 4.3 18:52:01 10° WNW 18:54:59 30° N 18:55:06 30° N
STARLINK-1032 3.8 18:52:02 10° WSW 18:56:10 67° NNW 18:57:17 45° NE
Cosmos 405 3.2 18:52:55 10° NNW 18:56:27 69° W 18:58:22 25° S
STARLINK-28 4.3 18:53:37 10° WNW 18:56:35 31° N 18:56:35 31° N
STARLINK-80 3.9 18:53:13 10° WNW 18:56:56 46° NNE 18:57:10 46° NNE
ADEOS Rocket 3.9 18:49:21 10° N 18:57:05 69° WNW 19:04:40 10° SSW
Cosmos 2221 Rocket 4.0 18:53:00 10° N 18:56:58 43° ENE 18:56:58 43° ENE
COSMOS 2487 3.3 18:54:12 10° NNW 18:57:34 48° WSW 18:59:29 22° S
STARLINK-58 4.3 18:54:31 10° WNW 18:57:47 34° N 18:58:11 33° NNE
STARLINK-1045 4.1 18:53:54 10° SW 18:57:32 44° SSE 18:57:32 44° SSE
Cosmos 1943 Rocket 3.8 18:53:11 10° WSW 18:58:09 32° NW 19:03:08 10° NNE
MOS 1 4.2 18:53:10 10° SSE 18:58:50 88° WSW 19:04:31 10° NNW
STARLINK-62 4.3 18:56:13 10° WNW 18:59:30 33° N 18:59:48 33° N
CZ-2C R/B 3.2 18:53:47 10° SSE 18:59:35 77° ENE 19:05:17 10° N
Cosmos 2034 Rocket 3.8 18:54:29 10° S 19:00:35 67° E 19:06:42 10° NNE
STARLINK-34 4.4 18:57:51 10° WNW 19:01:08 33° N 19:01:22 33° N
STARLINK-1011 3.9 18:57:02 10° WSW 19:01:09 64° NNW 19:02:02 49° NE
Cosmos 468 Rocket 3.9 18:56:56 10° SSW 19:02:12 74° ESE 19:07:32 10° NNE
Okean 1 3.4 18:58:15 10° NNW 19:02:16 75° W 19:04:38 23° S
Timation 2 Rocket 4.1 18:55:49 10° NNW 19:02:46 85° ENE 19:07:09 25° SSE
STARLINK-1050 4.0 18:58:52 10° SW 19:02:26 47° SSE 19:02:26 47° SSE
Lacrosse 5 rocket 2.8 18:59:18 10° NW 19:03:20 30° NNE 19:04:00 28° NNE
STARLINK-42 4.4 19:00:36 10° WNW 19:03:16 30° N 19:03:16 30° N
Cosmos 2227 Rocket 3.2 19:01:01 10° NNW 19:05:52 29° NE 19:05:52 29° NE
STARLINK-1036 3.9 19:02:04 10° WSW 19:06:09 61° NNW 19:06:51 52° NNE
Genesis I 4.4 19:02:47 10° NNW 19:05:28 30° NNE 19:05:28 30° NNE
BREEZE-M DEB (TANK) 3.2 19:04:06 10° WNW 19:06:06 58° WNW 19:06:06 58° WNW
SPOT 3 Rocket 3.5 19:05:25 42° SE 19:07:06 66° ENE 19:12:18 10° N
STARLINK-1055 4.0 19:03:47 10° SW 19:07:11 48° S 19:07:11 48° S
Okean 3 4.4 19:04:40 10° N 19:07:23 34° NNE 19:07:23 34° NNE
STARLINK-1010 4.5 19:05:58 10° WNW 19:08:41 31° NNW 19:08:41 31° NNW
Meteor 1-14 Rocket 4.1 19:05:26 10° S 19:10:58 90° ESE 19:16:35 10° NNE
STARLINK-1044 3.9 19:07:03 10° W 19:11:08 58° NNW 19:11:38 54° NNE
STARLINK-1031 4.0 19:08:24 10° W 19:12:23 53° NNW 19:12:46 51° N
STARLINK-1022 4.1 19:08:45 10° SW 19:12:00 47° S 19:12:00 47° S
Cosmos 1898 Rocket 3.7 19:08:48 10° NNW 19:13:57 67° WSW 19:17:01 24° S
Gbstr 26 Del rocket 3.0 19:10:21 10° SW 19:14:28 69° SSE 19:14:28 69° SSE
STARLINK-1042 4.2 19:13:40 10° SW 19:16:45 46° SSW 19:16:45 46° SSW
Resurs 1-3 4.2 19:19:42 43° NNE 19:19:42 43° NNE 19:22:53 10° N
STARLINK-1037 4.1 19:17:00 10° W 19:21:04 53° NNW 19:21:07 53° NNW
STARLINK-1056 4.4 19:18:37 10° SW 19:21:33 43° SSW 19:21:33 43° SSW
Cosmos 1092 Rocket 3.9 19:16:40 10° N 19:23:01 68° ENE 19:24:42 49° SE
USA 234 3.8 19:21:54 37° ENE 19:23:52 47° NNE 19:30:03 10° NW
STARLINK-1059 4.2 19:22:05 10° W 19:25:59 51° NNW 19:25:59 51° NNW
Cosmos 1763 Rocket 3.4 19:22:27 10° SSW 19:27:41 84° WNW 19:33:01 10° NNE
Cosmos 2219 3.3 19:24:29 10° NNW 19:29:58 57° NE 19:29:58 57° NE
Meteor 2-4 Rocket 3.7 19:24:22 10° NNW 19:30:20 90° ESE 19:32:13 46° S
Cosmos 1570 Rocket 4.1 19:25:54 10° SSW 19:30:09 59° S 19:30:09 59° S
STARLINK-1057 4.4 19:27:07 10° W 19:30:47 48° NW 19:30:47 48° NW
NOSS 3-2 (A) 4.1 19:25:13 10° NW 19:32:26 58° NE 19:34:00 50° E
NOSS 3-2 (C) 4.4 19:27:07 10° NW 19:34:04 46° NE 19:35:19 43° ENE
Resurs 01 Rocket 3.0 19:38:52 30° N 19:38:52 30° N 19:41:10 10° N
Cosmos 2195 Rocket 4.3 19:32:00 10° N 19:38:10 74° E 19:38:27 73° ESE
SL-08 RB Rocket 4.3 19:45:57 52° W 19:45:57 52° W 19:50:21 10° NNW
SJ-6B 4.4 19:46:43 31° W 19:46:43 31° W 19:49:50 10° NNW
Cosmos 2263 Rocket 4.4 19:46:52 10° N 19:48:31 13° NNE 19:48:31 13° NNE
Lacrosse 5 3.1 19:44:52 10° SW 19:47:37 32° SW 19:47:37 32° SW
MetOp-A 4.3 19:50:10 67° SW 19:50:31 69° WSW 19:55:53 10° NNW
CENTAUR R/B 3.4 19:46:29 10° NW 19:54:01 50° NE 19:54:46 49° NE
Meteor 1-13 Rocket 4.4 19:53:32 10° NNW 19:59:12 74° WNW 19:59:12 74° WNW
SJ 16-02 3.4 19:56:21 10° NW 19:59:52 24° W 20:00:55 22° WSW
H-2A R/B 4.0 19:59:09 10° SSW 20:03:44 28° W 20:08:24 10° NW
ATLAS 3B R/B 3.5 19:59:35 10° NNW 20:05:09 36° NNE 20:05:09 36° NNE
USA 238 DEB 4.0 20:24:22 10° NW 20:30:43 69° WNW 20:30:43 69° WNW
USA 238 4.0 20:24:28 10° NW 20:30:47 69° WNW 20:30:47 69° WNW
Cosmos 2297 Rocket 3.4 20:26:08 10° NNW 20:29:41 39° NW 20:29:41 39° NW
Lacrosse 5 rocket 4.2 20:38:30 10° NW 20:39:39 17° NW 20:39:39 17° NW
Cosmos 2227 Rocket 3.8 20:44:47 10° NW 20:47:42 30° NW 20:47:42 30° NW
USA 234 4.3 21:09:15 40° NW 21:09:15 40° NW 21:13:09 10° NW
CENTAUR R/B 4.2 21:37:14 10° NW 21:41:57 39° WNW 21:41:57 39° WNW
